Time,TemperatureF,DewpointF,PressureIn,WindDirection,WindDirectionDegrees,WindSpeedMPH,WindSpeedGustMPH,Humidity,HourlyPrecipIn,Conditions,Clouds,dailyrainin,SoftwareType,DateUTC
2013-02-11 00:12:00,15.0,-99.9,-100.00,North,-999,-999.0,-999.0,-999,0.00,,,0.07,,2013-02-11 07:12:00,
2013-02-11 00:22:00,15.0,-99.9,-100.00,North,-999,-999.0,-999.0,-999,0.00,,,0.07,,2013-02-11 07:22:00,
2013-02-11 00:32:00,15.0,-99.9,-100.00,North,-999,-999.0,-999.0,-999,0.00,,,0.07,,2013-02-11 07:32:00,
2013-02-11 00:42:00,15.0,-99.9,-100.00,North,-999,-999.0,-999.0,-999,0.00,,,0.07,,2013-02-11 07:42:00,
2013-02-11 01:22:00,13.0,-99.9,-100.00,North,-999,-999.0,-999.0,-999,0.00,,,0.03,,2013-02-11 08:22:00,
2013-02-11 01:32:00,13.0,-99.9,-100.00,North,-999,-999.0,-999.0,-999,0.00,,,0.03,,2013-02-11 08:32:00,
2013-02-11 01:42:00,13.0,-99.9,-100.00,North,-999,-999.0,-999.0,-999,0.00,,,0.03,,2013-02-11 08:42:00,
2013-02-11 02:12:00,13.0,-99.9,-100.00,North,-999,-999.0,-999.0,-999,0.00,,,0.02,,2013-02-11 09:12:00,
2013-02-11 02:22:00,13.0,-99.9,-100.00,North,-999,-999.0,-999.0,-999,0.00,,,0.02,,2013-02-11 09:22:00,
2013-02-11 02:32:00,13.0,-99.9,-100.00,North,-999,-999.0,-999.0,-999,0.00,,,0.02,,2013-02-11 09:32:00,
2013-02-11 02:42:00,13.0,-99.9,-100.00,North,-999,-999.0,-999.0,-999,0.00,,,0.02,,2013-02-11 09:42:00,
2013-02-11 03:11:00,10.0,-99.9,-100.00,North,-999,-999.0,-999.0,-999,0.00,,,0.02,,2013-02-11 10:11:00,
2013-02-11 03:22:00,10.0,-99.9,-100.00,North,-999,-999.0,-999.0,-999,0.00,,,0.02,,2013-02-11 10:22:00,
2013-02-11 03:32:00,10.0,-99.9,-100.00,North,-999,-999.0,-999.0,-999,0.00,,,0.02,,2013-02-11 10:32:00,
2013-02-11 03:42:00,10.0,-99.9,-100.00,North,-999,-999.0,-999.0,-999,0.00,,,0.02,,2013-02-11 10:42:00,
2013-02-11 04:11:00,10.0,-99.9,-100.00,North,-999,-999.0,-999.0,-999,0.00,,,0.01,,2013-02-11 11:11:00,
2013-02-11 04:22:00,10.0,-99.9,-100.00,North,-999,-999.0,-999.0,-999,0.00,,,0.01,,2013-02-11 11:22:00,
2013-02-11 04:32:00,10.0,-99.9,-100.00,North,-999,-999.0,-999.0,-999,0.00,,,0.01,,2013-02-11 11:32:00,
2013-02-11 04:42:00,10.0,-99.9,-100.00,North,-999,-999.0,-999.0,-999,0.00,,,0.01,,2013-02-11 11:42:00,
2013-02-11 05:12:00,8.0,-99.9,-100.00,North,-999,-999.0,-999.0,-999,0.00,,,0.01,,2013-02-11 12:12:00,
2013-02-11 05:22:00,8.0,-99.9,-100.00,North,-999,-999.0,-999.0,-999,0.00,,,0.01,,2013-02-11 12:22:00,
2013-02-11 05:32:00,8.0,-99.9,-100.00,North,-999,-999.0,-999.0,-999,0.00,,,0.01,,2013-02-11 12:32:00,
2013-02-11 05:43:00,8.0,-99.9,-100.00,North,-999,-999.0,-999.0,-999,0.00,,,0.01,,2013-02-11 12:43:00,
2013-02-11 06:12:00,6.0,-99.9,-100.00,North,-999,-999.0,-999.0,-999,0.00,,,0.01,,2013-02-11 13:12:00,
2013-02-11 06:22:00,6.0,-99.9,-100.00,North,-999,-999.0,-999.0,-999,0.00,,,0.01,,2013-02-11 13:22:00,
2013-02-11 06:33:00,6.0,-99.9,-100.00,North,-999,-999.0,-999.0,-999,0.00,,,0.01,,2013-02-11 13:33:00,
2013-02-11 06:42:00,6.0,-99.9,-100.00,North,-999,-999.0,-999.0,-999,0.00,,,0.01,,2013-02-11 13:42:00,
2013-02-11 07:12:00,6.0,-99.9,-100.00,North,-999,-999.0,-999.0,-999,0.00,,,0.01,,2013-02-11 14:12:00,
2013-02-11 07:22:00,6.0,-99.9,-100.00,North,-999,-999.0,-999.0,-999,0.00,,,0.01,,2013-02-11 14:22:00,
2013-02-11 07:33:00,6.0,-99.9,-100.00,North,-999,-999.0,-999.0,-999,0.00,,,0.01,,2013-02-11 14:33:00,
2013-02-11 07:43:00,6.0,-99.9,-100.00,North,-999,-999.0,-999.0,-999,0.00,,,0.01,,2013-02-11 14:43:00,
2013-02-11 08:12:00,5.0,-99.9,-100.00,North,-999,-999.0,-999.0,-999,0.00,,,0.01,,2013-02-11 15:12:00,
2013-02-11 08:22:00,5.0,-99.9,-100.00,North,-999,-999.0,-999.0,-999,0.00,,,0.01,,2013-02-11 15:22:00,
2013-02-11 08:32:00,5.0,-99.9,-100.00,North,-999,-999.0,-999.0,-999,0.00,,,0.01,,2013-02-11 15:32:00,
2013-02-11 08:43:00,5.0,-99.9,-100.00,North,-999,-999.0,-999.0,-999,0.00,,,0.01,,2013-02-11 15:43:00,
2013-02-11 09:02:00,10.0,-99.9,-100.00,North,-999,-999.0,-999.0,-999,0.00,,,0.01,,2013-02-11 16:02:00,
2013-02-11 09:12:00,10.0,-99.9,-100.00,North,-999,-999.0,-999.0,-999,0.00,,,0.01,,2013-02-11 16:12:00,
2013-02-11 09:22:00,10.0,-99.9,-100.00,North,-999,-999.0,-999.0,-999,0.00,,,0.01,,2013-02-11 16:22:00,
2013-02-11 09:32:00,10.0,-99.9,-100.00,North,-999,-999.0,-999.0,-999,0.00,,,0.01,,2013-02-11 16:32:00,
2013-02-11 09:43:00,10.0,-99.9,-100.00,North,-999,-999.0,-999.0,-999,0.00,,,0.01,,2013-02-11 16:43:00,
2013-02-11 10:12:00,14.0,-99.9,-100.00,North,-999,-999.0,-999.0,-999,0.00,,,-99.99,,2013-02-11 17:12:00,
2013-02-11 10:22:00,14.0,-99.9,-100.00,North,-999,-999.0,-999.0,-999,0.00,,,-99.99,,2013-02-11 17:22:00,
2013-02-11 10:33:00,14.0,-99.9,-100.00,North,-999,-999.0,-999.0,-999,0.00,,,-99.99,,2013-02-11 17:33:00,
2013-02-11 10:42:00,14.0,-99.9,-100.00,North,-999,-999.0,-999.0,-999,0.00,,,-99.99,,2013-02-11 17:42:00,
2013-02-11 11:12:00,23.0,-99.9,-100.00,North,-999,-999.0,-999.0,-999,0.00,,,0.01,,2013-02-11 18:12:00,
2013-02-11 11:22:00,23.0,-99.9,-100.00,North,-999,-999.0,-999.0,-999,0.00,,,0.01,,2013-02-11 18:22:00,
2013-02-11 11:32:00,23.0,-99.9,-100.00,North,-999,-999.0,-999.0,-999,0.00,,,0.01,,2013-02-11 18:32:00,
2013-02-11 11:42:00,23.0,-99.9,-100.00,North,-999,-999.0,-999.0,-999,0.00,,,0.01,,2013-02-11 18:42:00,
2013-02-11 12:12:00,29.0,-99.9,-100.00,North,-999,-999.0,-999.0,-999,0.00,,,0.00,,2013-02-11 19:12:00,
2013-02-11 12:22:00,29.0,-99.9,-100.00,North,-999,-999.0,-999.0,-999,0.00,,,0.00,,2013-02-11 19:22:00,
2013-02-11 12:32:00,29.0,-99.9,-100.00,North,-999,-999.0,-999.0,-999,0.00,,,0.00,,2013-02-11 19:32:00,
2013-02-11 13:12:00,30.0,-99.9,-100.00,North,-999,-999.0,-999.0,-999,0.00,,,0.00,,2013-02-11 20:12:00,
2013-02-11 13:22:00,30.0,-99.9,-100.00,North,-999,-999.0,-999.0,-999,0.00,,,0.00,,2013-02-11 20:22:00,
2013-02-11 13:32:00,30.0,-99.9,-100.00,North,-999,-999.0,-999.0,-999,0.00,,,0.00,,2013-02-11 20:32:00,
2013-02-11 13:42:00,30.0,-99.9,-100.00,North,-999,-999.0,-999.0,-999,0.00,,,0.00,,2013-02-11 20:42:00,
2013-02-11 14:12:00,31.0,-99.9,-100.00,North,-999,-999.0,-999.0,-999,0.00,,,0.00,,2013-02-11 21:12:00,
2013-02-11 14:22:00,31.0,-99.9,-100.00,North,-999,-999.0,-999.0,-999,0.00,,,0.00,,2013-02-11 21:22:00,
2013-02-11 14:32:00,31.0,-99.9,-100.00,North,-999,-999.0,-999.0,-999,0.00,,,0.00,,2013-02-11 21:32:00,
2013-02-11 14:42:00,31.0,-99.9,-100.00,North,-999,-999.0,-999.0,-999,0.00,,,0.00,,2013-02-11 21:42:00,
2013-02-11 15:12:00,31.0,-99.9,-100.00,North,-999,-999.0,-999.0,-999,0.00,,,0.00,,2013-02-11 22:12:00,
2013-02-11 15:22:00,31.0,-99.9,-100.00,North,-999,-999.0,-999.0,-999,0.00,,,0.00,,2013-02-11 22:22:00,
2013-02-11 15:32:00,31.0,-99.9,-100.00,North,-999,-999.0,-999.0,-999,0.00,,,0.00,,2013-02-11 22:32:00,
2013-02-11 15:42:00,31.0,-99.9,-100.00,North,-999,-999.0,-999.0,-999,0.00,,,0.00,,2013-02-11 22:42:00,
2013-02-11 16:12:00,30.0,-99.9,-100.00,North,-999,-999.0,-999.0,-999,0.00,,,0.00,,2013-02-11 23:12:00,
2013-02-11 16:22:00,30.0,-99.9,-100.00,North,-999,-999.0,-999.0,-999,0.00,,,0.00,,2013-02-11 23:22:00,
2013-02-11 16:32:00,30.0,-99.9,-100.00,North,-999,-999.0,-999.0,-999,0.00,,,0.00,,2013-02-11 23:32:00,
2013-02-11 16:42:00,30.0,-99.9,-100.00,North,-999,-999.0,-999.0,-999,0.00,,,0.00,,2013-02-11 23:42:00,
2013-02-11 17:12:00,29.0,-99.9,-100.00,North,-999,-999.0,-999.0,-999,0.00,,,0.00,,2013-02-12 00:12:00,
2013-02-11 17:22:00,29.0,-99.9,-100.00,North,-999,-999.0,-999.0,-999,0.00,,,0.00,,2013-02-12 00:22:00,
2013-02-11 17:32:00,29.0,-99.9,-100.00,North,-999,-999.0,-999.0,-999,0.00,,,0.00,,2013-02-12 00:32:00,
2013-02-11 17:43:00,29.0,-99.9,-100.00,North,-999,-999.0,-999.0,-999,0.00,,,0.00,,2013-02-12 00:43:00,
2013-02-11 18:12:00,28.0,-99.9,-100.00,North,-999,-999.0,-999.0,-999,0.00,,,0.00,,2013-02-12 01:12:00,
2013-02-11 18:22:00,28.0,-99.9,-100.00,North,-999,-999.0,-999.0,-999,0.00,,,0.00,,2013-02-12 01:22:00,
2013-02-11 18:32:00,28.0,-99.9,-100.00,North,-999,-999.0,-999.0,-999,0.00,,,0.00,,2013-02-12 01:32:00,
2013-02-11 18:42:00,28.0,-99.9,-100.00,North,-999,-999.0,-999.0,-999,0.00,,,0.00,,2013-02-12 01:42:00,
2013-02-11 19:12:00,25.0,-99.9,-100.00,North,-999,-999.0,-999.0,-999,0.00,,,0.00,,2013-02-12 02:12:00,
2013-02-11 19:22:00,25.0,-99.9,-100.00,North,-999,-999.0,-999.0,-999,0.00,,,0.00,,2013-02-12 02:22:00,
2013-02-11 19:32:00,25.0,-99.9,-100.00,North,-999,-999.0,-999.0,-999,0.00,,,0.00,,2013-02-12 02:32:00,
2013-02-11 19:42:00,25.0,-99.9,-100.00,North,-999,-999.0,-999.0,-999,0.00,,,0.00,,2013-02-12 02:42:00,
2013-02-11 20:11:00,24.0,-99.9,-100.00,North,-999,-999.0,-999.0,-999,0.00,,,0.00,,2013-02-12 03:11:00,
2013-02-11 20:22:00,24.0,-99.9,-100.00,North,-999,-999.0,-999.0,-999,0.00,,,0.00,,2013-02-12 03:22:00,
2013-02-11 20:32:00,24.0,-99.9,-100.00,North,-999,-999.0,-999.0,-999,0.00,,,0.00,,2013-02-12 03:32:00,
2013-02-11 20:42:00,24.0,-99.9,-100.00,North,-999,-999.0,-999.0,-999,0.00,,,0.00,,2013-02-12 03:42:00,
2013-02-11 21:11:00,20.0,-99.9,-100.00,North,-999,-999.0,-999.0,-999,0.00,,,0.00,,2013-02-12 04:11:00,
2013-02-11 21:22:00,20.0,-99.9,-100.00,North,-999,-999.0,-999.0,-999,0.00,,,0.00,,2013-02-12 04:22:00,
2013-02-11 21:32:00,20.0,-99.9,-100.00,North,-999,-999.0,-999.0,-999,0.00,,,0.00,,2013-02-12 04:32:00,
2013-02-11 21:42:00,20.0,-99.9,-100.00,North,-999,-999.0,-999.0,-999,0.00,,,0.00,,2013-02-12 04:42:00,
2013-02-11 22:11:00,20.0,-99.9,-100.00,North,-999,-999.0,-999.0,-999,0.00,,,0.00,,2013-02-12 05:11:00,
2013-02-11 22:22:00,20.0,-99.9,-100.00,North,-999,-999.0,-999.0,-999,0.00,,,0.00,,2013-02-12 05:22:00,
2013-02-11 22:32:00,20.0,-99.9,-100.00,North,-999,-999.0,-999.0,-999,0.00,,,0.00,,2013-02-12 05:32:00,
2013-02-11 22:42:00,20.0,-99.9,-100.00,North,-999,-999.0,-999.0,-999,0.00,,,0.00,,2013-02-12 05:42:00,
2013-02-11 23:12:00,19.0,-99.9,-100.00,North,-999,-999.0,-999.0,-999,0.00,,,0.00,,2013-02-12 06:12:00,
2013-02-11 23:22:00,19.0,-99.9,-100.00,North,-999,-999.0,-999.0,-999,0.00,,,0.00,,2013-02-12 06:22:00,
2013-02-11 23:32:00,19.0,-99.9,-100.00,North,-999,-999.0,-999.0,-999,0.00,,,0.00,,2013-02-12 06:32:00,
2013-02-11 23:43:00,19.0,-99.9,-100.00,North,-999,-999.0,-999.0,-999,0.00,,,0.00,,2013-02-12 06:43:00,